Location: Black Swamp Observatory
(41.3920°N, 84.1250°W)
Time: 12:20:53
(UTC-04:00)

Vanguard 2 - Pass Details

Date: 29 January 2022
Orbit: 552 x 2935 km, 32.9° (Epoch: 24 May)

Event Time Altitude Azimuth Distance (km) Brightness Sun altitude
Rises 19:10:36 0° 225° (SW) 3,373 11.8 -15.4°
Reaches altitude 10° 19:12:57 10° 215° (SW) 2,664 10.9 -15.9°
Maximum altitude 19:18:42 33° 152° (SSE) 2,000 9.4 -16.9°
Enters shadow 19:23:50 20° 106° (ESE) 3,066 10.0 -17.9°
